Location: Potomac Astrometric Observatory
(39.0475°N, 77.2064°W)
Time: 14:36:40
(UTC-04:00)

Envisat - Pass Details

Date: 29 March 2019
Orbit: 764 x 766 km, 98.1° (Epoch: 22 October)

Event Time Altitude Azimuth Distance (km) Brightness Sun altitude
Rises 20:15:47 0° 183° (S) 3,213 6.1 -9.7°
Reaches altitude 10° 20:18:11 10° 190° (S) 2,292 5.4 -10.2°
Maximum altitude 20:22:59 44° 261° (W) 1,057 4.3 -11.1°
Drops below altitude 10° 20:27:49 10° 334° (NNW) 2,308 6.1 -12.0°
Sets 20:30:15 0° 341° (NNW) 3,239 6.8 -12.4°
